Flag for France Weather past 2 weeks in Tours, France

Now
61 °F

Clear.


Feels Like: 61 °F
Forecast: 45 / 64 °F
Wind: 16 mph from Northeast

Location: Tours Airport

Current Time: Apr 18, 2015 at 5:59:36 PM

Latest Report: Apr 18, 2015 at 5:30 PM


Visibility: N/A

Pressure: 30.01 "Hg

Humidity: 45%

Dew point: 39 °F

Location of ToursLocation

Historic Weather in Tours — Graph

°F

Tours temperature yesterday

Maximum temperature yesterday: 61 °F (at 3:30 PM)
Minimum temperature yesterday: 55 °F (at 12:00 AM)
Average temperature yesterday: 57 °F

Past Weeks' High & Low Weather Summary

 TemperatureHumidityPressure
High82 °F (Apr 15, 6:00 PM)100% (Apr 3, 9:30 PM)30.54 "Hg (Apr 3, 9:30 PM)
Low36 °F (Apr 5, 8:00 AM)16% (Apr 15, 6:00 PM)29.83 "Hg (Apr 16, 4:00 PM)
Average55 °F66%30.21 "Hg
* Reported Apr 3 4:00 PM — Apr 18 4:30 PM, Tours, Weather by CustomWeather, © 2015

Note: Actual official high and low records may vary slightly from our data, if they occured in-between our weather recording intervals... More about our weather records

Advertising

Tours weather history for previous 24 hours

 ConditionsComfort  
Time TempWeatherWind HumidityBarometerVisibility
4:30 PM
Sat, Apr 18
61 °FClear.18 mph48%30.04 "HgN/A
4:00 PM61 °FClear.16 mph55%30.04 "HgN/A
3:30 PM61 °FClear.17 mph52%30.07 "HgN/A
3:00 PM61 °FClear.17 mph52%30.07 "HgN/A
2:30 PM61 °FClear.20 mph55%30.07 "HgN/A
2:00 PM59 °FClear.17 mph59%30.07 "HgN/A
1:30 PM59 °FClear.17 mph59%30.07 "HgN/A
1:00 PM57 °FClear.18 mph63%30.07 "HgN/A
12:30 PM57 °FClear.17 mph67%30.07 "HgN/A
12:00 PM55 °FPassing clouds.18 mph72%30.07 "HgN/A
11:30 AM54 °FPartly sunny.16 mph72%30.09 "HgN/A
11:00 AM52 °FOvercast.15 mph72%30.09 "HgN/A
10:30 AM52 °FMostly cloudy.15 mph77%30.07 "HgN/A
10:00 AM50 °FMostly cloudy.14 mph76%30.07 "HgN/A
9:30 AM48 °FPartly sunny.13 mph82%30.07 "HgN/A
9:00 AM48 °FOvercast.9 mph82%30.07 "Hg6 mi
8:30 AM48 °FOvercast.10 mph82%30.07 "Hg5 mi
8:00 AM48 °FPartly cloudy.12 mph82%30.07 "HgN/A
7:30 AM48 °FPartly cloudy.12 mph82%30.07 "HgN/A
7:00 AM48 °FPartly cloudy.13 mph82%30.04 "HgN/A
6:30 AM46 °FLight rain. Passing clouds.12 mph93%30.07 "Hg4 mi
6:00 AM48 °FLight rain. Passing clouds.12 mph82%30.07 "Hg4 mi
5:30 AM50 °FLight rain. Passing clouds.12 mph76%30.07 "HgN/A
5:00 AM50 °FPassing clouds.12 mph76%30.07 "HgN/A
4:30 AM50 °FMostly cloudy.12 mph82%30.07 "HgN/A
4:00 AM50 °FMostly cloudy.9 mph82%30.07 "HgN/A
3:30 AM50 °FMostly cloudy.9 mph82%30.07 "HgN/A
3:00 AM50 °FPassing clouds.12 mph88%30.07 "HgN/A
2:30 AM52 °FClear.9 mph88%30.07 "Hg4 mi
2:00 AM52 °FPartly cloudy.5 mph88%30.07 "Hg4 mi
1:00 AM54 °FPartly cloudy.3 mph88%30.07 "Hg5 mi
12:00 AM55 °FLight rain. Partly cloudy.3 mph94%30.07 "Hg4 mi
11:00 PM
Fri, Apr 17
55 °FLight rain. Partly cloudy.6 mph94%30.04 "Hg4 mi
10:30 PM55 °FLight rain. Partly cloudy.7 mph94%30.04 "Hg4 mi
10:00 PM55 °FLight rain. Partly cloudy.7 mph88%30.04 "HgN/A
9:30 PM57 °FBroken clouds.3 mph82%30.04 "HgN/A
9:00 PM57 °FBroken clouds.5 mph82%30.01 "HgN/A
8:30 PM59 °FPartly sunny.3 mph77%30.01 "HgN/A
8:00 PM59 °FPartly sunny.6 mph77%30.01 "HgN/A
7:30 PM61 °FOvercast.5 mph72%30.01 "HgN/A
7:00 PM59 °FOvercast.8 mph77%30.01 "HgN/A
6:30 PM59 °FOvercast.8 mph77%30.01 "HgN/A
6:00 PM59 °FMostly cloudy.8 mph77%30.01 "HgN/A
5:30 PM59 °FOvercast.8 mph77%30.01 "HgN/A
5:00 PM59 °FOvercast.9 mph77%30.01 "HgN/A
Weather by CustomWeather, © 2015

See weather overviewHow to use our weather pages